Terminal Aerodrome Forecast
Issued by NWS Mt. Holly, NJ

Home | Current Version | Previous Version | Text Only | Print | Product List | Glossary On
Versions: 1 2 3 4 5 6 7 8 9 10 11 12 13 14 15 16 17 18 19 20 21 22 23 24 25 26 27 28 29 30 31
000
FTUS41 KPHI 180500
TAFPHL
TAF
KPHL 180528Z 1806/1912 09008KT P6SM OVC021
     FM181500 09005KT P6SM BKN028
     FM181800 13005KT P6SM OVC200
     FM190300 19006KT P6SM OVC200
     FM190900 27003KT P6SM SCT040=

USA.gov is the U.S. government's official web portal to all federal, state and local government web resources and services.